Regional Weather Roundup
Issued by NWS

Home | Current Version | Previous Version | Text Only | Print | Product List | Glossary Off
Versions: 1 2 3 4 5 6 7 8 9 10 11 12 13 14 15 16 17 18 19 20 21 22 23 24 25 26 27 28 29 30 31 32 33 34 35 36 37 38 39 40 41 42 43 44 45 46 47 48 49 50

000
ASUS43 KMKX 040300
RWRWI

WISCONSIN REGIONAL WEATHER ROUNDUP
NATIONAL WEATHER SERVICE MILWAUKEE/SULLIVAN WI
1000 PM CDT TUE MAY 03 2016

NOTE: "FAIR" INDICATES FEW OR NO CLOUDS BELOW 12,000 FEET WITH NO
SIGNIFICANT WEATHER AND/OR OBSTRUCTIONS TO VISIBILITY.

WIZ001-002-006>008-014>016-023>028-040400-
NORTHWEST WISCONSIN

CITY           SKY/WX    TMP DP  RH WIND       PRES   REMARKS
SUPERIOR ARPT  CLEAR     54  33  45 N8        29.81R
ASHLAND        PTCLDY    48  36  63 NE16G25   29.81R
HAYWARD        CLEAR     55  30  38 N15G28    29.78R
SIREN          CLEAR     58  26  29 N10G16    29.77R
CUMBERLAND     CLEAR     55  28  35 N14       29.74R
RICE LAKE      CLEAR     56  31  38 N10       29.75R
CHETEK         CLEAR     53  45  73 CALM      29.74R
LADYSMITH      CLEAR     46  44  91 N3        29.75R
EAU CLAIRE     NOT AVBL
MENOMONIE      PTCLDY    56  44  63 N12       29.72R
NEW RICHMOND   CLEAR     59  26  28 N12G17    29.74R
OSCEOLA        CLEAR     59  28  30 N12       29.77R
$$

WIZ003>005-009-010-017-018-040400-
NORTH CENTRAL WISCONSIN

CITY           SKY/WX    TMP DP  RH WIND       PRES   REMARKS
MANITOWISH WTR PTCLDY    47  39  74 N3        29.74R
ARBOR VITAE    PTCLDY    44  40  87 CALM      29.73R
WOODRUFF       PTCLDY    44  40  87 CALM      29.73R
RHINELANDER    MOCLDY    40  38  93 CALM      29.73R FOG
EAGLE RIVER    MOCLDY    40  39  99 CALM      29.72R FOG
LAND O LAKES   CLOUDY    40  39  95 N5        29.74R
PHILLIPS       PTCLDY    42  41  97 CALM      29.73R
TOMAHAWK       FOG       42  41  97 CALM      29.72S VSB 3/4
MEDFORD        FOG       41  41 100 CALM      29.71R VSB 3/4
MERRILL        FOG       41  41 100 CALM      29.72R VSB 1/4
$$

WIZ029-030-035-036-043>047-040400-
CENTRAL WISCONSIN

CITY           SKY/WX    TMP DP  RH WIND       PRES   REMARKS
WAUSAU         PTCLDY    47  44  90 NE5       29.70R
MOSINEE        CLEAR     45  45 100 N3        29.71F
MARSHFIELD     CLOUDY    49  45  86 CALM      29.69F
STEVENS POINT  CLOUDY    45  44  99 CALM      29.70F
WAUPACA        CLOUDY    51  47  86 NE5       29.71S
WAUTOMA        CLOUDY    49  47  93 NE3       29.69F
WISC RAPIDS    CLOUDY    48  46  93 CALM      29.70F
CAMP DOUGLAS   NOT AVBL
$$

WIZ011>013-019>022-031-037>040-048>050-040400-
NORTHEAST WISCONSIN

CITY           SKY/WX    TMP DP  RH WIND       PRES   REMARKS
ANTIGO         CLOUDY    43  43 100 CALM      29.71S
SHAWANO        CLOUDY    48  45  88 CALM      29.70S
OCONTO         CLOUDY    49  49 100 CALM      29.68F
STURGEON BAY   CLOUDY    50  45  81 S3        29.71F
GREEN BAY      LGT RAIN  50  47  89 CALM      29.68F
MANITOWOC      NOT AVBL
APPLETON       LGT RAIN  48  46  93 N8        29.69F
CLINTONVILLE   CLOUDY    48  45  87 CALM      29.70S
OSHKOSH        HVY RAIN  50  47  89 NW7       29.71F FOG
$$

WIZ032>034-041-042-053>061-040400-
SOUTHWEST WISCONSIN

CITY           SKY/WX    TMP DP  RH WIND       PRES   REMARKS
LA CROSSE      CLOUDY    51  49  92 CALM      29.68R
SPARTA         CLOUDY    49  48  97 CALM      29.69F
VIROQUA        CLOUDY    49  47  93 S5        29.68R
BOSCOBEL       TSTM      52  46  80 N15G46    29.75R
PRAIRIE DU CHI LGT RAIN  61  44  53 W18       29.66S
PLATTEVILLE    PTCLDY    56  44  63 SW10      29.67F
$$

WIZ056-057-062-063-064-067-068-040400-
SOUTH CENTRAL WISCONSIN

CITY           SKY/WX    TMP DP  RH WIND       PRES   REMARKS
REEDSBURG      LGT RAIN  50  48  94 NE8       29.70S
BARABOO/DELLS  LGT RAIN  50  46  86 N6        29.71R
LONE ROCK      TSTM      55  45  68 N25G36    29.69R
MINERAL POINT  MOCLDY    59  39  47 SW9       29.66F
MADISON        LGT RAIN  55  44  66 N38G49    29.70R
MIDDLETON      MOCLDY    61  38  43 SW8       29.65F
WATERTOWN      CLOUDY    58  41  53 S8        29.65F
MONROE         MOCLDY    59  41  51 SW15      29.68F
JANESVILLE     NOT AVBL
$$

WIZ051-052-058>065-066-070>072-040400-
SOUTHEAST WISCONSIN

CITY           SKY/WX    TMP DP  RH WIND       PRES   REMARKS
MILWAUKEE      LGT RAIN  60  41  49 SW12      29.66F
WAUKESHA       CLOUDY    57  37  47 SW9       29.68F
MILWAUKEE/TIMM CLOUDY    61  36  39 SW8       29.67F
RACINE         CLOUDY    61  40  45 SW8       29.70F
BURLINGTON     CLOUDY    58  40  52 SW8       29.69F
KENOSHA        CLOUDY    60  41  49 SW8       29.69F
FOND DU LAC    LGT RAIN  51  47  86 N18G25    29.71R
SHEBOYGAN      LGT RAIN  52  45  77 N17       29.68S
WEST BEND      CLOUDY    52  46  82 SE5       29.65F
JUNEAU         CLOUDY    55  43  65 SE6       29.65F
$$

LSZ147-162-040400-
LAKE SUPERIOR

STATION/POSITION TIME  TEMP    WIND        PRES    WAVE
                       AIR SEA DIR/SP/G            HT/PER
                 (UTC) (F)     (DEG/KT/KT) (MB)    (FT/S)
W MID LAKE BUOY  0150   40 37  360/ 10/ 12 1008.8R   1
DEVILS ISLAND    0200   47      10/ 21/ 23 1009.2R
SAXON HARBOR     0200   47     350/ 15/ 18 1007.5R
$$

LMZ867-665-643>646-040400-
LAKE MICHIGAN

STATION/POSITION TIME  TEMP    WIND        PRES    WAVE
                       AIR SEA DIR/SP/G            HT/PER
                 (UTC) (F)     (DEG/KT/KT) (MB)    (FT/S)
CHAMBERS ISLAND  0200   49     230/  3/  7 1005.4R
N MID LAKE BUOY  0150   42 39  140/  6/  8 1005.1F   2/ 5
NORTHPORT PIER   0200   44      CALM  /  1 1005.1S
ALGOMA LAKESHORE 0215           CALM  /  3   N/A
KEWAUNEE LAKESHO 0200   45                 1004.9F
SHEBOYGAN LAKESH 0200   58     240/  4/  5 1005.5F
PORT WASHINGTON  0240   56     320/  2/  5 1005.8S
S MID LAKE BUOY  0150   46 41  180/ 12/ 12 1006.1F   1/ 3
KENOSHA   LAKESH 0200   63     240/  9/ 16 1006.1F
$$

TC  - TEMPERATURE IN CELSIUS
VSB - VISIBILITY IN STATUTE MILES
WCI - WIND CHILL INDEX
HX  - HEAT INDEX





USA.gov is the U.S. government's official web portal to all federal, state and local government web resources and services.